contact:dominique.lefevre@mio.osupytheas.fr, maurice.libes@osupytheas.fr, didier.mallarino@osupytheas.fr
Project:EMSO http://www.emso-fr.org/EMSO-France
Depth: 2436.0 m
Title:EMSO Ligure Ouest : Data MII capteur OXYGEN
DateTime,Latitude,Longitude,Optode-Type,Optode_Serial,Oxygen,Saturation_Oxygen,Temperature
DateTime,Latitude,Longitude,Optode-Type,Optode_Serial,µmol.l-1,%,degC
2019-06-06T00:01:17,42.805,6.029,4330,1995,193.524,59.190,13.294
2019-06-06T00:04:17,42.805,6.029,4330,1995,193.564,59.206,13.297
2019-06-06T00:07:17,42.805,6.029,4330,1995,193.530,59.193,13.295
2019-06-06T00:10:17,42.805,6.029,4330,1995,193.627,59.224,13.295
2019-06-06T00:13:17,42.805,6.029,4330,1995,193.346,59.143,13.300
2019-06-06T00:16:17,42.805,6.029,4330,1995,193.214,59.100,13.297
2019-06-06T00:19:17,42.805,6.029,4330,1995,193.376,59.146,13.295
2019-06-06T00:22:17,42.805,6.029,4330,1995,193.341,59.141,13.299
2019-06-06T00:25:17,42.805,6.029,4330,1995,193.164,59.085,13.298
2019-06-06T00:28:17,42.805,6.029,4330,1995,193.047,59.049,13.298
2019-06-06T00:31:17,42.805,6.029,4330,1995,192.921,59.007,13.295
2019-06-06T00:34:17,42.805,6.029,4330,1995,192.948,59.019,13.298
2019-06-06T00:37:17,42.805,6.029,4330,1995,192.945,59.018,13.298
2019-06-06T00:40:17,42.805,6.029,4330,1995,192.668,58.931,13.296
2019-06-06T00:43:17,42.805,6.029,4330,1995,192.470,58.870,13.296
2019-06-06T00:46:17,42.805,6.029,4330,1995,192.247,58.800,13.294
2019-06-06T00:49:17,42.805,6.029,4330,1995,192.202,58.787,13.295
2019-06-06T00:52:17,42.805,6.029,4330,1995,192.288,58.815,13.296
2019-06-06T00:55:17,42.805,6.029,4330,1995,192.159,58.775,13.296
2019-06-06T00:58:17,42.805,6.029,4330,1995,192.274,58.809,13.295
2019-06-06T01:01:17,42.805,6.029,4330,1995,192.425,58.860,13.298
2019-06-06T01:04:17,42.805,6.029,4330,1995,192.399,58.853,13.299
2019-06-06T01:07:17,42.805,6.029,4330,1995,192.438,58.864,13.299
2019-06-06T01:10:17,42.805,6.029,4330,1995,192.373,58.845,13.299
2019-06-06T01:13:17,42.805,6.029,4330,1995,192.361,58.841,13.299
2019-06-06T01:16:17,42.805,6.029,4330,1995,192.356,58.838,13.298
2019-06-06T01:19:17,42.805,6.029,4330,1995,192.408,58.856,13.299
2019-06-06T01:22:17,42.805,6.029,4330,1995,192.464,58.872,13.298
2019-06-06T01:25:17,42.805,6.029,4330,1995,192.577,58.905,13.298
2019-06-06T01:28:17,42.805,6.029,4330,1995,192.502,58.884,13.299
2019-06-06T01:31:17,42.805,6.029,4330,1995,192.481,58.878,13.299
2019-06-06T01:34:17,42.805,6.029,4330,1995,192.331,58.832,13.299
2019-06-06T01:37:17,42.805,6.029,4330,1995,192.271,58.818,13.302
2019-06-06T01:40:17,42.805,6.029,4330,1995,192.201,58.793,13.300
2019-06-06T01:43:17,42.805,6.029,4330,1995,192.258,58.814,13.302
2019-06-06T01:46:17,42.805,6.029,4330,1995,192.061,58.755,13.303
2019-06-06T01:49:17,42.805,6.029,4330,1995,192.143,58.779,13.303
2019-06-06T01:52:17,42.805,6.029,4330,1995,192.236,58.807,13.302
2019-06-06T01:55:17,42.805,6.029,4330,1995,192.173,58.787,13.302
2019-06-06T01:58:17,42.805,6.029,4330,1995,192.180,58.789,13.302
2019-06-06T02:01:17,42.805,6.029,4330,1995,192.299,58.827,13.303
2019-06-06T02:04:17,42.805,6.029,4330,1995,192.314,58.830,13.301
2019-06-06T02:07:17,42.805,6.029,4330,1995,192.340,58.837,13.301
2019-06-06T02:10:17,42.805,6.029,4330,1995,192.396,58.854,13.301
2019-06-06T02:13:17,42.805,6.029,4330,1995,192.355,58.844,13.302
2019-06-06T02:16:17,42.805,6.029,4330,1995,192.275,58.820,13.303
2019-06-06T02:19:17,42.805,6.029,4330,1995,192.276,58.819,13.302
2019-06-06T02:22:17,42.805,6.029,4330,1995,192.333,58.834,13.300
2019-06-06T02:25:17,42.805,6.029,4330,1995,192.370,58.845,13.300
2019-06-06T02:28:17,42.805,6.029,4330,1995,192.384,58.851,13.301
2019-06-06T02:31:17,42.805,6.029,4330,1995,192.485,58.879,13.299
2019-06-06T02:34:17,42.805,6.029,4330,1995,192.595,58.911,13.297
2019-06-06T02:37:17,42.805,6.029,4330,1995,192.766,58.962,13.297
2019-06-06T02:40:17,42.805,6.029,4330,1995,192.791,58.970,13.297
2019-06-06T02:43:17,42.805,6.029,4330,1995,192.864,58.991,13.296
2019-06-06T02:46:17,42.805,6.029,4330,1995,192.882,58.996,13.295
2019-06-06T02:49:17,42.805,6.029,4330,1995,192.846,58.985,13.296
2019-06-06T02:52:17,42.805,6.029,4330,1995,192.949,59.018,13.297
2019-06-06T02:55:17,42.805,6.029,4330,1995,193.013,59.033,13.293
2019-06-06T02:58:17,42.805,6.029,4330,1995,193.094,59.058,13.294
2019-06-06T03:01:17,42.805,6.029,4330,1995,193.126,59.068,13.294
2019-06-06T03:04:17,42.805,6.029,4330,1995,193.140,59.071,13.293
2019-06-06T03:07:17,42.805,6.029,4330,1995,193.094,59.059,13.294
2019-06-06T03:10:17,42.805,6.029,4330,1995,193.007,59.033,13.295
2019-06-06T03:13:17,42.805,6.029,4330,1995,192.895,59.000,13.295
2019-06-06T03:16:17,42.805,6.029,4330,1995,192.732,58.953,13.298
2019-06-06T03:19:17,42.805,6.029,4330,1995,192.540,58.895,13.299
2019-06-06T03:22:17,42.805,6.029,4330,1995,192.630,58.922,13.298
2019-06-06T03:25:17,42.805,6.029,4330,1995,192.702,58.943,13.297
2019-06-06T03:28:17,42.805,6.029,4330,1995,192.819,58.980,13.298
2019-06-06T03:31:17,42.805,6.029,4330,1995,192.597,58.910,13.297
2019-06-06T03:34:17,42.805,6.029,4330,1995,192.724,58.950,13.297
2019-06-06T03:37:17,42.805,6.029,4330,1995,192.758,58.958,13.295
2019-06-06T03:40:17,42.805,6.029,4330,1995,192.942,59.017,13.298
2019-06-06T03:43:17,42.805,6.029,4330,1995,192.726,58.950,13.297
2019-06-06T03:46:17,42.805,6.029,4330,1995,192.602,58.913,13.297
2019-06-06T03:49:17,42.805,6.029,4330,1995,192.645,58.928,13.299
2019-06-06T03:52:17,42.805,6.029,4330,1995,192.996,59.036,13.299
2019-06-06T03:55:17,42.805,6.029,4330,1995,192.817,58.981,13.299
2019-06-06T03:58:17,42.805,6.029,4330,1995,192.722,58.952,13.299
2019-06-06T04:01:17,42.805,6.029,4330,1995,192.594,58.913,13.299
2019-06-06T04:04:17,42.805,6.029,4330,1995,192.596,58.911,13.297
2019-06-06T04:07:17,42.805,6.029,4330,1995,192.480,58.876,13.298
2019-06-06T04:10:17,42.805,6.029,4330,1995,192.541,58.892,13.296
2019-06-06T04:13:17,42.805,6.029,4330,1995,192.512,58.886,13.298
2019-06-06T04:16:17,42.805,6.029,4330,1995,192.827,58.983,13.298
2019-06-06T04:19:17,42.805,6.029,4330,1995,192.842,58.989,13.300
2019-06-06T04:22:17,42.805,6.029,4330,1995,192.796,58.975,13.300
2019-06-06T04:25:17,42.805,6.029,4330,1995,192.585,58.910,13.299
2019-06-06T04:28:17,42.805,6.029,4330,1995,192.495,58.880,13.298
2019-06-06T04:31:17,42.805,6.029,4330,1995,192.532,58.888,13.294
2019-06-06T04:34:17,42.805,6.029,4330,1995,192.571,58.900,13.295
2019-06-06T04:37:17,42.805,6.029,4330,1995,192.722,58.945,13.294
2019-06-06T04:40:17,42.805,6.029,4330,1995,192.716,58.945,13.296
2019-06-06T04:43:17,42.805,6.029,4330,1995,192.786,58.964,13.294
2019-06-06T04:46:17,42.805,6.029,4330,1995,192.860,58.989,13.295
2019-06-06T04:49:17,42.805,6.029,4330,1995,192.708,58.944,13.297
2019-06-06T04:52:17,42.805,6.029,4330,1995,192.633,58.919,13.295
2019-06-06T04:55:17,42.805,6.029,4330,1995,192.706,58.941,13.295
2019-06-06T04:58:17,42.805,6.029,4330,1995,192.703,58.941,13.296
2019-06-06T05:01:17,42.805,6.029,4330,1995,192.445,58.862,13.295
2019-06-06T05:04:17,42.805,6.029,4330,1995,192.420,58.854,13.295
2019-06-06T05:07:17,42.805,6.029,4330,1995,192.411,58.850,13.294
2019-06-06T05:10:17,42.805,6.029,4330,1995,192.388,58.845,13.296
2019-06-06T05:13:17,42.805,6.029,4330,1995,192.392,58.845,13.295
2019-06-06T05:16:17,42.805,6.029,4330,1995,192.427,58.856,13.295
2019-06-06T05:19:17,42.805,6.029,4330,1995,192.540,58.891,13.296
2019-06-06T05:22:17,42.805,6.029,4330,1995,192.462,58.869,13.297
2019-06-06T05:25:17,42.805,6.029,4330,1995,192.629,58.920,13.297
2019-06-06T05:28:17,42.805,6.029,4330,1995,192.754,58.959,13.297
2019-06-06T05:31:17,42.805,6.029,4330,1995,192.963,59.025,13.299
2019-06-06T05:34:17,42.805,6.029,4330,1995,192.853,58.989,13.297
2019-06-06T05:37:17,42.805,6.029,4330,1995,192.738,58.957,13.299
2019-06-06T05:40:17,42.805,6.029,4330,1995,192.435,58.865,13.300
2019-06-06T05:43:17,42.805,6.029,4330,1995,192.497,58.881,13.298
2019-06-06T05:46:17,42.805,6.029,4330,1995,192.545,58.895,13.297
2019-06-06T05:49:17,42.805,6.029,4330,1995,192.573,58.903,13.296
2019-06-06T05:52:17,42.805,6.029,4330,1995,192.636,58.922,13.297
2019-06-06T05:55:17,42.805,6.029,4330,1995,192.675,58.938,13.299
2019-06-06T05:58:17,42.805,6.029,4330,1995,192.668,58.937,13.300
2019-06-06T06:01:17,42.805,6.029,4330,1995,192.608,58.915,13.297
2019-06-06T06:04:17,42.805,6.029,4330,1995,192.461,58.869,13.297
2019-06-06T06:07:17,42.805,6.029,4330,1995,192.668,58.934,13.298
2019-06-06T06:10:17,42.805,6.029,4330,1995,192.770,58.964,13.297
2019-06-06T06:13:17,42.805,6.029,4330,1995,193.034,59.044,13.297
2019-06-06T06:16:17,42.805,6.029,4330,1995,192.987,59.030,13.297
2019-06-06T06:19:17,42.805,6.029,4330,1995,187.659,57.401,13.297
2019-06-06T06:22:17,42.805,6.029,4330,1995,185.353,56.696,13.298
2019-06-06T06:25:17,42.805,6.029,4330,1995,185.768,56.827,13.301
2019-06-06T06:28:17,42.805,6.029,4330,1995,188.514,57.662,13.298
2019-06-06T06:31:17,42.805,6.029,4330,1995,190.216,58.184,13.298
2019-06-06T06:34:17,42.805,6.029,4330,1995,191.662,58.626,13.298
2019-06-06T06:37:17,42.805,6.029,4330,1995,192.055,58.747,13.299
2019-06-06T06:40:17,42.805,6.029,4330,1995,192.339,58.836,13.300
2019-06-06T06:43:17,42.805,6.029,4330,1995,192.418,58.857,13.298
2019-06-06T06:46:17,42.805,6.029,4330,1995,192.438,58.862,13.297
2019-06-06T06:49:17,42.805,6.029,4330,1995,192.610,58.913,13.296
2019-06-06T06:52:17,42.805,6.029,4330,1995,192.510,58.884,13.297
2019-06-06T06:55:17,42.805,6.029,4330,1995,192.485,58.875,13.296
2019-06-06T06:58:17,42.805,6.029,4330,1995,192.477,58.872,13.296
2019-06-06T07:01:17,42.805,6.029,4330,1995,192.477,58.874,13.297
2019-06-06T07:04:17,42.805,6.029,4330,1995,192.451,58.866,13.297
2019-06-06T07:07:17,42.805,6.029,4330,1995,192.562,58.897,13.295
2019-06-06T07:10:17,42.805,6.029,4330,1995,192.707,58.941,13.295
2019-06-06T07:13:17,42.805,6.029,4330,1995,192.822,58.980,13.297
2019-06-06T07:16:17,42.805,6.029,4330,1995,192.711,58.943,13.295
2019-06-06T07:19:17,42.805,6.029,4330,1995,192.567,58.900,13.296
2019-06-06T07:22:17,42.805,6.029,4330,1995,192.576,58.903,13.296
2019-06-06T07:25:17,42.805,6.029,4330,1995,192.555,58.896,13.296
2019-06-06T07:28:17,42.805,6.029,4330,1995,192.607,58.915,13.298
2019-06-06T07:31:17,42.805,6.029,4330,1995,192.583,58.905,13.296
2019-06-06T07:34:17,42.805,6.029,4330,1995,192.692,58.939,13.296
2019-06-06T07:37:17,42.805,6.029,4330,1995,192.851,58.985,13.294
2019-06-06T07:40:17,42.805,6.029,4330,1995,192.889,58.999,13.296
2019-06-06T07:43:17,42.805,6.029,4330,1995,192.894,58.998,13.294
2019-06-06T07:46:17,42.805,6.029,4330,1995,192.926,59.010,13.296
2019-06-06T07:49:17,42.805,6.029,4330,1995,192.926,59.007,13.294
2019-06-06T07:52:17,42.805,6.029,4330,1995,193.003,59.035,13.297
2019-06-06T07:55:17,42.805,6.029,4330,1995,192.861,58.993,13.298
2019-06-06T07:58:17,42.805,6.029,4330,1995,192.669,58.929,13.294
2019-06-06T08:01:17,42.805,6.029,4330,1995,192.740,58.954,13.297
2019-06-06T08:04:17,42.805,6.029,4330,1995,192.779,58.966,13.297
2019-06-06T08:07:17,42.805,6.029,4330,1995,192.794,58.973,13.298
2019-06-06T08:10:17,42.805,6.029,4330,1995,192.835,58.981,13.295
2019-06-06T08:13:17,42.805,6.029,4330,1995,192.929,59.015,13.299
2019-06-06T08:16:17,42.805,6.029,4330,1995,192.828,58.982,13.297
2019-06-06T08:19:17,42.805,6.029,4330,1995,192.834,58.982,13.296
2019-06-06T08:22:17,42.805,6.029,4330,1995,192.945,59.016,13.296
2019-06-06T08:25:17,42.805,6.029,4330,1995,192.924,59.012,13.298
2019-06-06T08:28:17,42.805,6.029,4330,1995,193.171,59.083,13.295
2019-06-06T08:31:17,42.805,6.029,4330,1995,193.176,59.091,13.299
2019-06-06T08:34:17,42.805,6.029,4330,1995,193.183,59.087,13.294
2019-06-06T08:37:17,42.805,6.029,4330,1995,193.072,59.056,13.297
2019-06-06T08:40:17,42.805,6.029,4330,1995,193.064,59.051,13.295
2019-06-06T08:43:17,42.805,6.029,4330,1995,193.162,59.081,13.295
2019-06-06T08:46:17,42.805,6.029,4330,1995,193.115,59.068,13.296
2019-06-06T08:49:17,42.805,6.029,4330,1995,193.034,59.045,13.297
2019-06-06T08:52:17,42.805,6.029,4330,1995,193.054,59.049,13.296
2019-06-06T08:55:17,42.805,6.029,4330,1995,193.164,59.082,13.295
2019-06-06T08:58:17,42.805,6.029,4330,1995,193.131,59.073,13.296
2019-06-06T09:01:17,42.805,6.029,4330,1995,192.997,59.033,13.297
2019-06-06T09:04:17,42.805,6.029,4330,1995,192.947,59.015,13.295
2019-06-06T09:07:17,42.805,6.029,4330,1995,192.923,59.010,13.297
2019-06-06T09:10:17,42.805,6.029,4330,1995,192.880,58.998,13.297
2019-06-06T09:13:17,42.805,6.029,4330,1995,192.919,59.007,13.295
2019-06-06T09:16:17,42.805,6.029,4330,1995,192.965,59.021,13.295
2019-06-06T09:19:17,42.805,6.029,4330,1995,192.880,58.992,13.293
2019-06-06T09:22:17,42.805,6.029,4330,1995,192.960,59.018,13.295
2019-06-06T09:25:17,42.805,6.029,4330,1995,193.002,59.031,13.295
2019-06-06T09:28:17,42.805,6.029,4330,1995,193.070,59.051,13.294
2019-06-06T09:31:17,42.805,6.029,4330,1995,193.098,59.060,13.294
2019-06-06T09:34:17,42.805,6.029,4330,1995,192.939,59.012,13.294
2019-06-06T09:37:17,42.805,6.029,4330,1995,192.965,59.019,13.294
2019-06-06T09:40:17,42.805,6.029,4330,1995,193.024,59.037,13.294
2019-06-06T09:43:17,42.805,6.029,4330,1995,193.078,59.052,13.293
2019-06-06T09:46:17,42.805,6.029,4330,1995,193.034,59.040,13.294
2019-06-06T09:49:17,42.805,6.029,4330,1995,192.927,59.011,13.297
2019-06-06T09:52:17,42.805,6.029,4330,1995,192.938,59.012,13.295
2019-06-06T09:55:17,42.805,6.029,4330,1995,192.905,59.006,13.298
2019-06-06T09:58:17,42.805,6.029,4330,1995,192.839,58.984,13.296
2019-06-06T10:01:17,42.805,6.029,4330,1995,192.767,58.962,13.296
2019-06-06T10:04:17,42.805,6.029,4330,1995,192.734,58.950,13.295
2019-06-06T10:07:17,42.805,6.029,4330,1995,192.881,58.996,13.296
2019-06-06T10:10:17,42.805,6.029,4330,1995,192.881,58.996,13.296
2019-06-06T10:13:17,42.805,6.029,4330,1995,193.034,59.042,13.296
2019-06-06T10:16:17,42.805,6.029,4330,1995,193.043,59.046,13.296
2019-06-06T10:19:17,42.805,6.029,4330,1995,192.947,59.018,13.297
2019-06-06T10:22:17,42.805,6.029,4330,1995,192.942,59.016,13.297
2019-06-06T10:25:17,42.805,6.029,4330,1995,192.906,59.001,13.294
2019-06-06T10:28:17,42.805,6.029,4330,1995,192.853,58.987,13.296
2019-06-06T10:31:17,42.805,6.029,4330,1995,192.964,59.022,13.296
2019-06-06T10:34:17,42.805,6.029,4330,1995,193.052,59.053,13.299
2019-06-06T10:37:17,42.805,6.029,4330,1995,192.994,59.030,13.295
2019-06-06T10:40:17,42.805,6.029,4330,1995,193.031,59.042,13.296
2019-06-06T10:43:17,42.805,6.029,4330,1995,193.014,59.036,13.295
2019-06-06T10:46:17,42.805,6.029,4330,1995,193.133,59.072,13.295
2019-06-06T10:49:17,42.805,6.029,4330,1995,193.126,59.074,13.298
2019-06-06T10:52:17,42.805,6.029,4330,1995,192.959,59.022,13.297
2019-06-06T10:55:17,42.805,6.029,4330,1995,192.921,59.009,13.297
2019-06-06T10:58:17,42.805,6.029,4330,1995,192.987,59.026,13.294
2019-06-06T11:01:17,42.805,6.029,4330,1995,192.970,59.024,13.296
2019-06-06T11:04:17,42.805,6.029,4330,1995,193.000,59.032,13.295
2019-06-06T11:07:17,42.805,6.029,4330,1995,193.042,59.043,13.294
2019-06-06T11:10:17,42.805,6.029,4330,1995,193.026,59.041,13.296
2019-06-06T11:13:17,42.805,6.029,4330,1995,192.952,59.018,13.296
2019-06-06T11:16:17,42.805,6.029,4330,1995,192.884,58.995,13.294
2019-06-06T11:19:17,42.805,6.029,4330,1995,192.971,59.022,13.294
2019-06-06T11:22:17,42.805,6.029,4330,1995,192.892,58.997,13.294
2019-06-06T11:25:17,42.805,6.029,4330,1995,193.005,59.032,13.294
2019-06-06T11:28:17,42.805,6.029,4330,1995,192.991,59.028,13.295
2019-06-06T11:31:17,42.805,6.029,4330,1995,192.997,59.028,13.293
2019-06-06T11:34:17,42.805,6.029,4330,1995,192.965,59.022,13.296
2019-06-06T11:37:17,42.805,6.029,4330,1995,192.883,58.997,13.296
2019-06-06T11:40:17,42.805,6.029,4330,1995,192.836,58.980,13.294
2019-06-06T11:43:17,42.805,6.029,4330,1995,192.882,58.991,13.292
2019-06-06T11:46:17,42.805,6.029,4330,1995,192.859,58.986,13.293
2019-06-06T11:49:17,42.805,6.029,4330,1995,192.896,59.000,13.296
2019-06-06T11:52:17,42.805,6.029,4330,1995,192.944,59.014,13.294
2019-06-06T11:55:17,42.805,6.029,4330,1995,192.954,59.016,13.294
2019-06-06T11:58:17,42.805,6.029,4330,1995,192.896,58.999,13.295
2019-06-06T12:01:17,42.805,6.029,4330,1995,192.895,58.999,13.295
2019-06-06T12:04:17,42.805,6.029,4330,1995,192.925,59.005,13.293
2019-06-06T12:07:17,42.805,6.029,4330,1995,192.853,58.988,13.296
2019-06-06T12:10:17,42.805,6.029,4330,1995,192.752,58.953,13.293
2019-06-06T12:13:17,42.805,6.029,4330,1995,193.027,59.040,13.296
2019-06-06T12:16:17,42.805,6.029,4330,1995,193.007,59.035,13.296
2019-06-06T12:19:17,42.805,6.029,4330,1995,192.993,59.027,13.293
2019-06-06T12:22:17,42.805,6.029,4330,1995,192.983,59.030,13.298
2019-06-06T12:25:17,42.805,6.029,4330,1995,192.857,58.988,13.295
2019-06-06T12:28:17,42.805,6.029,4330,1995,192.916,59.009,13.297
2019-06-06T12:31:17,42.805,6.029,4330,1995,192.988,59.030,13.297
2019-06-06T12:34:17,42.805,6.029,4330,1995,192.862,58.993,13.298
2019-06-06T12:37:17,42.805,6.029,4330,1995,192.824,58.982,13.299
2019-06-06T12:40:17,42.805,6.029,4330,1995,192.872,58.998,13.300
2019-06-06T12:43:17,42.805,6.029,4330,1995,192.836,58.985,13.298
2019-06-06T12:46:17,42.805,6.029,4330,1995,192.665,58.934,13.299
2019-06-06T12:49:17,42.805,6.029,4330,1995,192.667,58.934,13.299
2019-06-06T12:52:17,42.805,6.029,4330,1995,192.698,58.942,13.297
2019-06-06T12:55:17,42.805,6.029,4330,1995,192.760,58.961,13.297
2019-06-06T12:58:17,42.805,6.029,4330,1995,192.787,58.968,13.296
2019-06-06T13:01:17,42.805,6.029,4330,1995,192.720,58.949,13.298
2019-06-06T13:04:17,42.805,6.029,4330,1995,192.701,58.944,13.298
2019-06-06T13:07:17,42.805,6.029,4330,1995,192.899,59.000,13.295
2019-06-06T13:10:17,42.805,6.029,4330,1995,192.922,59.010,13.297
2019-06-06T13:13:17,42.805,6.029,4330,1995,193.008,59.035,13.296
2019-06-06T13:16:17,42.805,6.029,4330,1995,192.873,58.994,13.296
2019-06-06T13:19:17,42.805,6.029,4330,1995,192.845,58.984,13.295
2019-06-06T13:22:17,42.805,6.029,4330,1995,192.842,58.985,13.297
2019-06-06T13:25:17,42.805,6.029,4330,1995,192.878,58.997,13.297
2019-06-06T13:28:17,42.805,6.029,4330,1995,192.845,58.986,13.296
2019-06-06T13:31:17,42.805,6.029,4330,1995,192.907,59.004,13.296
2019-06-06T13:34:17,42.805,6.029,4330,1995,193.038,59.043,13.295
2019-06-06T13:37:17,42.805,6.029,4330,1995,193.129,59.072,13.296
2019-06-06T13:40:17,42.805,6.029,4330,1995,193.061,59.049,13.294
2019-06-06T13:43:17,42.805,6.029,4330,1995,192.997,59.029,13.294
2019-06-06T13:46:17,42.805,6.029,4330,1995,192.953,59.019,13.297
2019-06-06T13:49:17,42.805,6.029,4330,1995,193.020,59.038,13.296
2019-06-06T13:52:17,42.805,6.029,4330,1995,192.970,59.020,13.294
2019-06-06T13:55:17,42.805,6.029,4330,1995,192.864,58.991,13.296
2019-06-06T13:58:17,42.805,6.029,4330,1995,193.043,59.043,13.294
2019-06-06T14:01:17,42.805,6.029,4330,1995,193.020,59.037,13.295
2019-06-06T14:04:17,42.805,6.029,4330,1995,193.012,59.037,13.297
2019-06-06T14:07:17,42.805,6.029,4330,1995,193.106,59.063,13.294
2019-06-06T14:10:17,42.805,6.029,4330,1995,193.216,59.096,13.294
2019-06-06T14:13:17,42.805,6.029,4330,1995,193.287,59.116,13.293
2019-06-06T14:16:17,42.805,6.029,4330,1995,193.291,59.121,13.295
2019-06-06T14:19:17,42.805,6.029,4330,1995,193.349,59.136,13.294
2019-06-06T14:22:17,42.805,6.029,4330,1995,193.322,59.131,13.296
2019-06-06T14:25:17,42.805,6.029,4330,1995,193.253,59.109,13.295
2019-06-06T14:28:17,42.805,6.029,4330,1995,193.273,59.113,13.294
2019-06-06T14:31:17,42.805,6.029,4330,1995,193.192,59.092,13.297
2019-06-06T14:34:17,42.805,6.029,4330,1995,193.274,59.113,13.294
2019-06-06T14:37:17,42.805,6.029,4330,1995,193.188,59.089,13.295
2019-06-06T14:40:17,42.805,6.029,4330,1995,193.144,59.075,13.295
2019-06-06T14:43:17,42.805,6.029,4330,1995,193.179,59.085,13.295
2019-06-06T14:46:17,42.805,6.029,4330,1995,193.387,59.148,13.294
2019-06-06T14:49:17,42.805,6.029,4330,1995,193.365,59.145,13.296
2019-06-06T14:52:16,42.805,6.029,4330,1995,193.419,59.159,13.294
2019-06-06T14:55:16,42.805,6.029,4330,1995,193.260,59.110,13.294
2019-06-06T14:58:16,42.805,6.029,4330,1995,193.239,59.108,13.298
2019-06-06T15:01:16,42.805,6.029,4330,1995,193.195,59.089,13.294
2019-06-06T15:04:16,42.805,6.029,4330,1995,193.295,59.120,13.294
2019-06-06T15:07:16,42.805,6.029,4330,1995,193.281,59.114,13.293
2019-06-06T15:10:16,42.805,6.029,4330,1995,193.400,59.151,13.293
2019-06-06T15:13:16,42.805,6.029,4330,1995,193.370,59.144,13.294
2019-06-06T15:16:16,42.805,6.029,4330,1995,193.518,59.189,13.294
2019-06-06T15:19:16,42.805,6.029,4330,1995,193.432,59.162,13.294
2019-06-06T15:22:16,42.805,6.029,4330,1995,193.403,59.152,13.293
2019-06-06T15:25:16,42.805,6.029,4330,1995,193.300,59.121,13.293
2019-06-06T15:28:16,42.805,6.029,4330,1995,193.417,59.157,13.293
2019-06-06T15:31:16,42.805,6.029,4330,1995,193.428,59.160,13.293
2019-06-06T15:34:16,42.805,6.029,4330,1995,193.415,59.155,13.293
2019-06-06T15:37:16,42.805,6.029,4330,1995,193.479,59.175,13.293
2019-06-06T15:40:16,42.805,6.029,4330,1995,193.504,59.182,13.292
2019-06-06T15:43:16,42.805,6.029,4330,1995,193.486,59.176,13.292
2019-06-06T15:46:16,42.805,6.029,4330,1995,193.471,59.171,13.292
2019-06-06T15:49:16,42.805,6.029,4330,1995,193.431,59.159,13.292
2019-06-06T15:52:16,42.805,6.029,4330,1995,193.471,59.171,13.292
2019-06-06T15:55:16,42.805,6.029,4330,1995,193.380,59.142,13.291
2019-06-06T15:58:16,42.805,6.029,4330,1995,193.518,59.184,13.291
2019-06-06T16:01:16,42.805,6.029,4330,1995,193.472,59.173,13.293
2019-06-06T16:04:16,42.805,6.029,4330,1995,193.468,59.170,13.291
2019-06-06T16:07:16,42.805,6.029,4330,1995,193.472,59.174,13.293
2019-06-06T16:10:16,42.805,6.029,4330,1995,193.292,59.118,13.293
2019-06-06T16:13:16,42.805,6.029,4330,1995,193.324,59.127,13.292
2019-06-06T16:16:16,42.805,6.029,4330,1995,193.442,59.163,13.293
2019-06-06T16:19:16,42.805,6.029,4330,1995,193.358,59.139,13.293
2019-06-06T16:22:16,42.805,6.029,4330,1995,193.348,59.134,13.293
2019-06-06T16:25:16,42.805,6.029,4330,1995,193.300,59.120,13.293
2019-06-06T16:28:16,42.805,6.029,4330,1995,193.410,59.154,13.293
2019-06-06T16:31:16,42.805,6.029,4330,1995,193.440,59.163,13.293
2019-06-06T16:34:16,42.805,6.029,4330,1995,193.463,59.172,13.294
2019-06-06T16:37:16,42.805,6.029,4330,1995,193.538,59.193,13.293
2019-06-06T16:40:16,42.805,6.029,4330,1995,193.442,59.165,13.294
2019-06-06T16:43:16,42.805,6.029,4330,1995,193.400,59.150,13.293
2019-06-06T16:46:16,42.805,6.029,4330,1995,193.548,59.197,13.293
2019-06-06T16:49:16,42.805,6.029,4330,1995,193.589,59.207,13.291
2019-06-06T16:52:16,42.805,6.029,4330,1995,193.563,59.200,13.293
2019-06-06T16:55:16,42.805,6.029,4330,1995,193.625,59.220,13.294
2019-06-06T16:58:16,42.805,6.029,4330,1995,193.514,59.188,13.294
2019-06-06T17:01:16,42.805,6.029,4330,1995,193.428,59.162,13.294
2019-06-06T17:04:16,42.805,6.029,4330,1995,193.467,59.173,13.294
2019-06-06T17:07:16,42.805,6.029,4330,1995,193.474,59.173,13.292
2019-06-06T17:10:16,42.805,6.029,4330,1995,193.569,59.207,13.296
2019-06-06T17:13:16,42.805,6.029,4330,1995,193.632,59.224,13.295
2019-06-06T17:16:16,42.805,6.029,4330,1995,193.498,59.181,13.293
2019-06-06T17:19:16,42.805,6.029,4330,1995,193.441,59.167,13.295
2019-06-06T17:22:16,42.805,6.029,4330,1995,193.430,59.163,13.296
2019-06-06T17:25:16,42.805,6.029,4330,1995,193.544,59.198,13.295
2019-06-06T17:28:16,42.805,6.029,4330,1995,193.439,59.164,13.294
2019-06-06T17:31:16,42.805,6.029,4330,1995,193.589,59.212,13.296
2019-06-06T17:34:16,42.805,6.029,4330,1995,193.553,59.199,13.294
2019-06-06T17:37:16,42.805,6.029,4330,1995,193.485,59.180,13.295
2019-06-06T17:40:16,42.805,6.029,4330,1995,193.561,59.201,13.294
2019-06-06T17:43:16,42.805,6.029,4330,1995,193.632,59.223,13.294
2019-06-06T17:46:16,42.805,6.029,4330,1995,193.656,59.231,13.295
2019-06-06T17:49:16,42.805,6.029,4330,1995,193.682,59.238,13.293
2019-06-06T17:52:16,42.805,6.029,4330,1995,193.842,59.287,13.294
2019-06-06T17:55:16,42.805,6.029,4330,1995,193.804,59.274,13.293
2019-06-06T17:58:16,42.805,6.029,4330,1995,193.772,59.263,13.291
2019-06-06T18:01:16,42.805,6.029,4330,1995,193.765,59.261,13.292
2019-06-06T18:04:16,42.805,6.029,4330,1995,193.643,59.224,13.292
2019-06-06T18:07:16,42.805,6.029,4330,1995,193.730,59.251,13.292